Weather History for Ogden, UT

Change the Weather History Date:

Friday, January 17, 2014

  Actual Average Record
Temperature  
Mean Temperature 28 °F -  
Max Temperature 36 °F 38 °F 53 °F (1943)
Min Temperature 19 °F 20 °F -16 °F (1930)
Degree Days  
Heating Degree Days 38    
Moisture  
Dew Point 16 °F    
Average Humidity 65    
Maximum Humidity 78    
Minimum Humidity 52    
Precipitation  
Precipitation 0.00 in - - ()
Sea Level Pressure  
Sea Level Pressure 30.46 in    
Wind  
Wind Speed 6 mph (SSW)    
Max Wind Speed 9 mph    
Max Gust Speed -    
Visibility 9 miles    
Events      
Averages and records for this station are not official NWS values.
T = Trace of Precipitation, MM = Missing Value Source: NWS Daily Summary

Daily Weather History Graph

Daily Weather History Graph

Search for Another Location

Airport:

Trip Planner

Search our weather history database for the weather conditions in past years. The results will help you decide how hot, cold, wet, or windy it might be!

Date:

Astronomy

Jan. 17, 2014 Rise Set
Actual Time 7:50 AM MST 5:26 PM MST
Civil Twilight 7:20 AM MST 5:56 PM MST
Nautical Twilight 6:46 AM MST 6:30 PM MST
Astronomical Twilight 6:13 AM MST 7:03 PM MST
Moon 7:17 PM MST (1/17) 8:18 AM MST (1/17)
Length of Visible Light 10h 36m
Length of Day
9h 36m
Full, 98% of the Moon is Illuminated
Jan 17
Full
Jan 23
Last Quarter
Jan 30
New
Feb 6
First Quarter
Feb 14
Full

Hourly Weather History & Observations

Time (MST) Temp. Windchill Dew Point Humidity Pressure Visibility Wind Dir Wind Speed Gust Speed Precip Events Conditions
12:53 AM 23.0 °F 13.1 °F 12.9 °F 65% 30.51 in 10.0 mi South 9.2 mph - N/A   Clear
1:53 AM 21.9 °F 12.5 °F 12.9 °F 68% 30.51 in 10.0 mi South 8.1 mph - N/A   Clear
2:53 AM 21.0 °F 12.4 °F 12.0 °F 68% 30.51 in 10.0 mi South 6.9 mph - N/A   Clear
3:53 AM 21.0 °F 11.4 °F 12.0 °F 68% 30.50 in 10.0 mi South 8.1 mph - N/A   Clear
4:53 AM 23.0 °F - 12.0 °F 63% 30.50 in 10.0 mi Calm Calm - N/A   Clear
5:53 AM 19.0 °F 10.0 °F 10.9 °F 71% 30.51 in 10.0 mi South 6.9 mph - N/A   Clear
6:53 AM 19.9 °F 10.1 °F 10.9 °F 68% 30.51 in 10.0 mi South 8.1 mph - N/A   Clear
7:53 AM 19.0 °F 10.0 °F 10.0 °F 68% 30.52 in 10.0 mi SSW 6.9 mph - N/A   Clear
8:53 AM 19.9 °F 11.1 °F 12.0 °F 71% 30.51 in 10.0 mi South 6.9 mph - N/A   Clear
9:53 AM 25.0 °F 18.1 °F 14.0 °F 63% 30.51 in 10.0 mi South 5.8 mph - N/A   Clear
10:53 AM 30.0 °F 22.4 °F 16.0 °F 56% 30.49 in 10.0 mi SSE 8.1 mph - N/A   Clear
11:53 AM 34.0 °F 29.8 °F 18.0 °F 52% 30.46 in 10.0 mi Variable 4.6 mph - N/A   Clear
12:53 PM 34.0 °F - 21.9 °F 61% 30.43 in 8.0 mi Calm Calm - N/A   Clear
1:53 PM 35.1 °F 32.2 °F 21.0 °F 57% 30.40 in 8.0 mi WNW 3.5 mph - N/A   Clear
2:53 PM 36.0 °F 31.1 °F 23.0 °F 59% 30.40 in 7.0 mi NW 5.8 mph - N/A   Clear
3:53 PM 36.0 °F 30.3 °F 23.0 °F 59% 30.40 in 7.0 mi NW 6.9 mph - N/A   Clear
4:53 PM 33.1 °F 27.7 °F 21.9 °F 64% 30.40 in 6.0 mi NW 5.8 mph - N/A   Haze
5:53 PM 28.9 °F 22.8 °F 19.9 °F 69% 30.41 in 7.0 mi NW 5.8 mph - N/A   Clear
6:53 PM 27.0 °F - 18.0 °F 69% 30.42 in 7.0 mi Calm Calm - N/A   Clear
7:53 PM 25.0 °F - 19.0 °F 78% 30.43 in 6.0 mi Calm Calm - N/A   Haze
8:53 PM 24.1 °F 16.0 °F 15.1 °F 69% 30.43 in 10.0 mi South 6.9 mph - N/A   Clear
9:53 PM 25.0 °F 17.1 °F 14.0 °F 63% 30.42 in 10.0 mi South 6.9 mph - N/A   Clear
10:53 PM 25.0 °F 16.3 °F 15.1 °F 66% 30.40 in 10.0 mi South 8.1 mph - N/A   Clear
11:53 PM 24.1 °F 17.0 °F 15.1 °F 69% 30.40 in 10.0 mi South 5.8 mph - N/A   Clear